Location: Ebenshausen
(51.0875°N, 10.3078°E)
Time: 22:21:14
(UTC+00:00)

Daily predictions for brighter satellites

Satellite Brightness Start Highest point End
(mag) Time Altitude Azimuth Time Altitude Azimuth Time Altitude Azimuth
COSMO-SKYMED 1 2.6 17:20:30 10° NNE 17:24:49 60° ESE 17:29:07 10° S
Cosmos 2263 Rocket 2.3 17:19:11 10° NNW 17:24:56 88° ENE 17:30:39 10° SSE
Cosmos 1975 3.7 17:21:45 10° SSW 17:25:44 55° WNW 17:29:42 10° N
Spot 1 4.4 17:26:19 10° NNE 17:30:17 40° E 17:34:08 10° S
ASTEX 1 3.4 17:25:45 10° N 17:30:43 65° E 17:35:41 10° S
Cosmos 1437 Rocket 4.0 17:28:21 10° SE 17:31:04 19° E 17:33:47 10° NE
HJ-1C 3.8 17:30:13 10° SE 17:33:05 34° ENE 17:35:58 10° N
Cosmos 1741 Rocket 4.0 17:28:34 10° S 17:33:47 65° ESE 17:39:00 10° NNE
CZ-4C R/B 4.0 17:29:45 10° N 17:34:01 64° WNW 17:38:04 10° SSW
Cosmos 1626 4.1 17:32:24 10° NNW 17:35:42 33° W 17:38:59 10° SSW
Cosmos 1814 Rocket 4.0 17:31:09 10° NNW 17:36:26 69° ENE 17:41:36 10° SSE
USA 267 3.6 17:29:55 10° SE 17:36:27 70° SW 17:43:01 10° WNW
SL-4 R/B 2.8 17:33:01 10° WNW 17:37:18 55° SSW 17:41:50 10° SE
Cosmos 2084 Rocket 3.6 17:36:10 10° NW 17:39:51 45° NE 17:43:23 12° ESE
Cosmos 2208 Rocket 4.4 17:35:54 10° NNW 17:41:05 46° ENE 17:46:18 10° SE
Cosmos 2227 4.2 17:36:35 10° NNW 17:42:15 75° ENE 17:47:53 10° SE
Cosmos 1805 3.2 17:38:34 10° S 17:42:27 87° E 17:46:22 10° N
Cosmos 1242 Rocket 2.9 17:40:12 10° SSW 17:43:44 68° WNW 17:47:15 10° N
IRIDIUM 114 4.5 17:40:25 10° SSE 17:45:27 52° E 17:50:32 10° NNE
Okean-O 3.9 17:42:56 11° ESE 17:46:06 22° ENE 17:49:30 10° N
ISS -1.4 17:44:25 10° W 17:46:59 20° SW 17:49:32 10° SSE
CZ-4 R/B 1.7 17:44:39 10° SE 17:48:41 49° ENE 17:52:44 10° N
Cosmos 1697 Rocket 3.6 17:43:32 10° SW 17:48:59 51° NW 17:54:31 10° NNE
BREEZE M DEB (TANK) 4.2 17:46:17 10° SSW 17:50:58 18° SSE 17:53:02 13° ESE
SL-14 R/B 3.8 17:49:09 10° NNW 17:53:05 64° W 17:57:02 10° S
Cosmos 1908 Rocket 3.8 17:50:02 10° SSE 17:54:08 44° E 17:58:15 10° NNE
OBJECT-B 1.7 17:54:14 19° ENE 17:54:28 19° ENE 17:56:23 10° NNE
IRIDIUM 103 4.3 17:49:26 10° SSE 17:54:34 62° E 17:59:44 10° N
Meteor 2-21 4.4 17:48:46 10° S 17:54:45 70° E 18:00:47 10° NNE
MOS 1-B 4.5 17:48:59 10° SSE 17:54:48 85° WSW 18:00:40 10° NNW
Cosmos 1733 3.8 17:52:17 10° SSW 17:55:58 59° WNW 17:59:42 10° N
Cosmos 2360 Rocket 3.5 17:52:50 10° SE 17:56:25 18° E 18:00:01 10° ENE
Cosmos 1809 Rocket 4.4 17:53:19 10° S 17:59:23 89° ESE 18:05:32 10° N
Cosmos 1766 3.2 17:58:23 10° S 18:02:17 72° E 18:06:14 10° NNE
Cosmos 1674 Rocket 4.0 17:57:55 10° NNW 18:02:18 67° W 18:06:42 10° S
Cosmos 1782 Rocket 4.3 17:58:36 10° SSE 18:02:24 30° E 18:06:15 10° NNE
Meteor 2-10 4.3 17:58:20 10° SSW 18:03:57 83° WNW 18:09:25 10° NNE
Cosmos 1025 Rocket 3.7 18:01:01 10° N 18:04:59 34° ENE 18:07:56 16° SE
YAOGAN 1 2.6 18:02:38 10° SSE 18:06:57 82° WSW 18:11:19 10° NNW
ATLAS 2AS CENTAUR R/B 4.2 18:01:09 10° WNW 18:07:39 30° N 18:13:49 10° ENE
Cosmos 2026 Rocket 4.3 18:02:58 10° SSE 18:08:29 39° E 18:14:04 10° NNE
Cosmos 968 Rocket 3.7 18:04:00 10° S 18:09:03 49° ESE 18:14:05 10° NNE
Okean O Rocket 1.6 18:06:25 10° SSE 18:10:47 89° WSW 18:15:12 10° NNW
IRIDIUM 106 4.3 18:07:38 10° S 18:12:51 86° E 18:18:06 10° N
Lacrosse 4 Rocket 2.4 18:10:33 10° SSE 18:13:49 23° ESE 18:13:56 23° ESE
Meteor 2-5 Rocket 3.6 18:09:09 10° N 18:14:42 69° ENE 18:20:13 10° SSE
Nadezhda 4 Rocket 4.0 18:09:57 10° S 18:16:18 83° E 18:22:37 10° NNE
Meteor 1-15 Rocket 4.1 18:12:30 10° S 18:18:01 67° E 18:23:33 10° NNE
CSL-04 Rocket 3.9 18:13:27 13° SE 18:18:04 48° ENE 18:23:17 10° N
NOSS 3-4 (A) 4.4 18:13:59 10° NW 18:20:06 39° NNE 18:24:38 20° E
NOSS 3-4 (C) 4.5 18:14:06 10° NW 18:20:12 39° NNE 18:24:44 20° E
Cosmos 2285 Rocket 4.3 18:14:57 10° NNW 18:21:16 70° WSW 18:27:36 10° SSE
USA 186 2.1 18:22:42 32° ESE 18:23:49 46° ENE 18:27:05 10° N
Cosmos 1726 3.1 18:20:59 10° SSW 18:24:31 48° WNW 18:28:05 10° N
Cosmos 2322 Rocket 2.6 18:19:38 10° S 18:24:55 41° ESE 18:30:15 10° NE
Landsat 7 4.3 18:25:23 26° ESE 18:27:22 38° ENE 18:31:45 10° N
Cosmos 1470 2.6 18:25:20 10° S 18:29:06 59° E 18:32:53 10° NNE
CZ-4B R/B 4.0 18:24:09 10° S 18:29:25 53° W 18:34:49 10° NNW
deb Chang Zheng 4 4.4 18:29:32 28° ENE 18:29:58 28° ENE 18:33:33 10° N
Cosmos 1975 Rocket 3.0 18:25:44 10° N 18:30:08 61° ENE 18:33:08 19° SSE
ARGOS Delta rocket 4.5 18:24:58 10° N 18:30:14 64° WNW 18:35:11 10° SSW
Cosmos 1980 Rocket 3.2 18:25:41 10° SW 18:31:06 48° NW 18:36:33 10° NNE
Ariane Rocket 4.3 18:36:14 21° ENE 18:36:40 21° NE 18:40:25 10° N
CRYOSAT 2 4.3 18:34:18 11° SSE 18:38:56 63° E 18:43:48 10° N
Cosmos 1758 4.5 18:40:19 26° NE 18:40:19 26° NE 18:42:36 10° NNE
Cosmos 2292 Rocket 3.5 18:34:21 10° S 18:39:20 87° W 18:43:08 10° N
USA 215 3.4 18:36:54 13° ENE 18:42:47 73° NNW 18:49:18 10° WSW
IRS-1C Rocket 4.0 18:43:42 23° SSE 18:46:57 69° ENE 18:52:12 10° NNW
Cosmos 1844 Rocket 2.6 18:44:01 10° NNW 18:49:45 89° ENE 18:52:59 27° SSE
Cosmos 2278 4.4 18:48:54 10° SW 18:54:28 54° NW 19:00:03 10° NNE
Landsat 5 3.5 18:50:18 10° NNE 18:54:49 70° ESE 18:59:15 10° S
SL-16 R/B 2.1 18:49:26 10° SSW 18:55:06 86° ESE 19:00:50 10° NNE
Cosmos 1943 Rocket 4.2 18:53:02 10° N 18:55:37 13° NNE 18:57:29 11° NE
Cosmos 1092 Rocket 4.0 18:51:30 10° S 18:57:49 87° W 19:04:07 10° N
Resurs 01 Rocket 2.2 19:01:19 40° NE 19:01:19 40° NE 19:05:11 10° N
Cosmos 836 Rocket 4.5 18:55:43 10° NNW 19:01:04 85° WSW 19:03:34 32° SSE
Terra 4.0 19:03:49 12° NE 19:03:49 12° NE 19:04:56 10° NNE
SJ-6B 3.0 19:02:07 38° S 19:03:23 66° WSW 19:07:12 10° NNW
Cosmos 2278 Rocket 3.4 19:00:09 10° NNW 19:04:54 26° NE 19:05:41 25° NE
H-2A R/B 2.8 19:07:12 45° NNE 19:07:12 45° NNE 19:10:13 10° N
Cosmos 1437 Rocket 4.1 19:03:27 10° SW 19:06:58 38° WNW 19:10:30 10° N
Gbstr 26 Del rocket 4.5 19:00:37 10° WSW 19:08:25 89° S 19:12:38 33° E
Meteor 1-24 Rocket 4.4 19:04:47 10° NNW 19:09:55 51° W 19:15:06 10° S
Cosmos 1703 4.1 19:07:32 10° N 19:10:10 38° NNE 19:10:10 38° NNE
Resurs 1-3 3.6 19:11:26 52° S 19:12:29 82° WSW 19:16:55 10° NNW
SL-4 R/B 4.4 19:13:07 10° W 19:16:13 18° SW 19:17:51 15° SSW
IRS-1A Rocket 4.4 19:15:26 51° E 19:16:15 55° ENE 19:21:56 10° N
Cosmos 921 Rocket 3.9 19:12:03 10° N 19:15:35 38° NE 19:15:35 38° NE
MetOp-A 3.7 19:17:19 56° N 19:17:19 56° N 19:20:37 10° NNW
Okean-O 3.2 19:20:29 33° SSW 19:22:14 55° W 19:26:36 10° NNW
Cosmos 783 Rocket 4.4 19:17:12 10° NNW 19:22:29 68° ENE 19:22:48 66° E
CZ-4 R/B 4.0 19:20:42 10° SW 19:23:51 21° W 19:27:02 10° NW
Cosmos 1844 4.0 19:18:42 10° NW 19:24:12 62° WSW 19:26:12 38° S
OBJECT-B 3.3 19:24:56 16° WNW 19:24:56 16° WNW 19:26:10 10° NW
Cosmos 1486 Rocket 3.9 19:19:07 10° SSW 19:24:27 82° ESE 19:29:49 10° NNE
IGS 5A 4.5 19:24:37 30° SSW 19:26:11 43° W 19:30:10 10° NNW
Cosmos 2266 Rocket 4.3 19:26:59 46° ENE 19:26:59 46° ENE 19:32:28 10° NNE
Cosmos 1655 Rocket 4.5 19:28:46 41° ENE 19:28:46 41° ENE 19:33:39 10° NNE
DNEPR-1 R/B 3.9 19:23:56 10° SW 19:28:45 84° SE 19:30:35 44° NE
S3M 3.9 19:22:54 10° N 19:29:10 70° ENE 19:30:10 59° SE
Spot 2 4.4 19:31:04 57° N 19:31:04 57° N 19:34:39 10° NNW
Cosmos 773 Rocket 3.8 19:25:20 10° NNW 19:30:41 83° ENE 19:31:00 78° ESE
Meteor 1-21 Rocket 4.0 19:25:46 10° N 19:31:20 71° ENE 19:31:34 70° E
Cosmos 2333 Rocket 4.4 19:36:34 12° NE 19:36:34 12° NE 19:37:00 10° NE
Cosmos 1300 Rocket 3.9 19:30:15 39° SW 19:31:39 63° WNW 19:36:01 10° N
SPOT 5 4.4 19:36:14 23° NNE 19:36:14 23° NNE 19:38:31 10° N
Cosmos 2360 Rocket 2.1 19:33:59 10° SSW 19:39:39 89° WNW 19:45:20 10° NNE
Cosmos 158 Rocket 4.1 19:40:43 10° NNW 19:44:48 61° N 19:44:48 61° N
Cosmos 883 Rocket 4.4 19:41:19 10° N 19:47:37 68° ENE 19:47:37 68° ENE
Lacrosse 4 Rocket 3.1 19:48:08 10° SW 19:50:17 28° WSW 19:50:17 28° WSW
ATLAS 2AS CENTAUR R/B 3.5 19:53:37 10° NW 20:00:27 41° NNE 20:01:35 38° NE
MOS 1 4.5 20:01:33 64° SW 20:01:56 66° WSW 20:07:37 10° NNW
ERS-1 Rocket 4.4 20:07:13 29° NNE 20:07:13 29° NNE 20:09:56 10° N
SPOT 1/Viking Rocket 4.0 20:07:54 56° W 20:07:54 56° W 20:12:41 10° NNW
Cosmos 2322 Rocket 3.2 20:03:32 10° WSW 20:08:58 44° NW 20:14:27 10° NNE
NOSS 3-4 (A) 3.7 20:04:52 10° NW 20:11:42 86° SW 20:12:04 81° SSE
NOSS 3-4 (C) 3.7 20:04:58 10° NW 20:11:48 86° SW 20:12:10 82° SSE
SPOT 3 Rocket 4.5 20:15:04 42° N 20:15:04 42° N 20:18:30 10° NNW
Ariane Rocket 3.8 20:16:26 50° NNW 20:16:26 50° NNW 20:20:14 10° NNW
USA 215 3.7 20:24:15 48° NNE 20:25:27 54° N 20:31:47 10° WNW
Aureole 1 Rocket 4.3 20:19:41 10° SW 20:26:47 62° WNW 20:32:21 10° NNE
USA 281 3.4 20:27:40 60° NNE 20:27:40 60° NNE 20:33:22 10° NNW
Resurs 01 Rocket 3.8 20:38:52 23° WNW 20:38:52 23° WNW 20:41:24 10° NW
Cosmos 2315 Rocket 4.4 20:32:18 10° NNW 20:37:56 61° WNW 20:37:56 61° WNW
Terra 3.9 20:42:43 23° N 20:42:43 23° N 20:44:28 10° N
SL-16 R/B 4.2 20:35:20 10° W 20:39:58 25° NW 20:44:36 10° NNE
Cosmos 1943 Rocket 3.7 20:35:54 10° NNW 20:38:59 28° N 20:38:59 28° N
Cosmos 2278 Rocket 3.3 20:43:57 10° NNW 20:47:32 40° NW 20:47:32 40° NW
Cosmos 2369 Rocket 4.1 20:55:48 10° NNW 20:58:48 22° NNE 20:58:48 22° NNE
Cosmos 2219 Rocket 4.5 21:05:13 16° NNE 21:05:13 16° NNE 21:06:18 10° NNE
Cosmos 2333 Rocket 4.1 21:18:31 24° N 21:18:31 24° N 21:21:14 10° NNE
Cosmos 2360 Rocket 4.2 21:19:55 10° W 21:24:26 24° NW 21:28:57 10° NNE
ATLAS 2AS CENTAUR R/B 3.9 21:44:54 10° NW 21:49:00 37° NW 21:49:00 37° NW
